Preview of NWS' New Version of Forecast
This preview is not operational and should not be used for support decisions.

Regional Weather Roundup (RWR)

Issued by National Weather Service (NWS)

                            
000
ASUS43 KTOP 181108
RWRKS 

WEATHER ROUNDUP FOR KANSAS
NATIONAL WEATHER SERVICE GOODLAND KS
600 AM CDT TUE JUN 18 2019

NOTE:  "FAIR" INDICATES FEW OR NO CLOUDS BELOW 12,000 FEET WITH NO
SIGNIFICANT WEATHER AND/OR OBSTRUCTIONS TO VISIBILITY.

KSZ001>006-013>018-027>032-041>047-181200-
NORTHWEST KANSAS
  
CITY           SKY/WX    TMP DP  RH WIND       PRES   REMARKS
GOODLAND       RAIN      59  59 100 CALM      30.00F FOG              
HAYS           CLOUDY    64  62  93 NE7       29.95F                  
HILL CITY      CLOUDY    64  63  96 E8        29.97F                  
RUSSELL        LGT RAIN  65  62  90 N7        29.94F                  
$$

KSZ061>065-074>080-084>089-181200-
SOUTHWEST KANSAS
  
CITY           SKY/WX    TMP DP  RH WIND       PRES   REMARKS
DODGE CITY     HVY RAIN  63  62  97 W5        29.99R FOG              
ELKHART        PTCLDY    60  60 100 E3        29.98F                  
GARDEN CITY    PTCLDY    61  61 100 SE7       29.97F                  
LIBERAL        CLEAR     63  61  93 NE3       29.98S                  
PRATT          CLEAR     66  65  94 NE3       29.95S                  
$$

KSZ066>073-081>083-090>101-181200-
SOUTHEAST KANSAS
  
CITY           SKY/WX    TMP DP  RH WIND       PRES   REMARKS
CHANUTE        FOG       64  61  90 CALM      29.93S VSB 1/4          
COFFEYVILLE    CLEAR     66  65  96 N5        29.90S                  
HUTCHINSON     PTCLDY    67  63  87 NW6       29.92F                  
MEDICINE LODGE   N/A     67  65  93 NW3       29.93R                  
NEWTON         PTCLDY    67  65  93 W3        29.94F                  
PARSONS        FOG       63  63 100 CALM      29.93S VSB 1/4          
WICHITA INTL   PTCLDY    69  64  84 CALM      29.91F                  
WICHITA JABRA  CLEAR     65  63  93 CALM      29.91F                  
WICHITA MCCONL CLEAR     69  64  85 S3        29.92F                  
WINFIELD       CLEAR     67  65  93 E3        29.92F                  
$$

KSZ007>012-019>026-033>040-048>060-102>105-181200-
NORTHEAST KANSAS
  
CITY           SKY/WX    TMP DP  RH WIND       PRES   REMARKS
CONCORDIA      CLEAR     66  61  84 CALM      29.94S                  
EMPORIA        PTCLDY    64  64 100 S3        29.94R FOG              
LAWRENCE       PTCLDY    62  60  93 NW3       29.94S FOG              
MANHATTAN      CLEAR     64  62  93 CALM      29.93S                  
MARYSVILLE     CLEAR     63  61  94 SE3       29.95R                  
OLATHE IND     FOG       64  63  96 E3        29.95R VSB 3/4          
OLATHE EXE     FOG       65  65 100 NE5       29.94S VSB 1/2          
SALINA         MOCLDY    70  66  87 SW7       29.92F                  
TOPEKA BILLARD CLEAR     66  63  90 CALM      29.93F                  
TOPEKA FORBES  FOG       61  59  93 CALM      29.94S VSB 1/4          
$$